Flag for U.S.A. Weather past 2 weeks in Jersey City, New Jersey, U.S.A.

Now
68 °F

Passing clouds.


Feels Like: 68 °F
Forecast: 66 / 81 °F
Wind: 5 mph from North

Location: Newark International Airport

Current Time: Jul 30, 2014 at 12:16:30 AM

Latest Report: Jul 29, 2014 at 11:51 PM


Visibility: 10 mi

Pressure: 29.97 "Hg

Humidity: 57%

Dew point: 52 °F

Location of Jersey CityLocation

Historic Weather in Jersey City — Graph

°F

Jersey City temperature yesterday

Maximum temperature yesterday: 76 °F (at 12:51 PM)
Minimum temperature yesterday: 64 °F (at 5:51 AM)
Average temperature yesterday: 71 °F

Past Weeks' High & Low Weather Summary

 TemperatureHumidityPressure
High92 °F (Jul 23, 5:51 PM)100% (Jul 15, 9:02 PM)30.24 "Hg (Jul 15, 9:02 PM)
Low64 °F (Jul 29, 5:51 AM)32% (Jul 18, 5:51 PM)29.52 "Hg (Jul 28, 1:51 PM)
Average75 °F64%29.94 "Hg
* Reported Jul 14 10:51 PM — Jul 29 10:51 PM, Jersey City, Weather by CustomWeather, © 2014

Note: Actual official high and low records may vary slightly from our data, if they occured in-between our weather recording intervals... More about our weather records

Advertising

Jersey City weather history for previous 24 hours

 ConditionsComfort  
Time TempWeatherWind HumidityBarometerVisibility
10:51 PM
Jul 29
68 °FPassing clouds.6 mph55%29.97 "Hg10 mi
9:51 PM70 °FPassing clouds.8 mph51%29.96 "Hg10 mi
8:51 PM72 °FBroken clouds.9 mph46%29.94 "Hg10 mi
7:51 PM73 °FPartly sunny.8 mph41%29.94 "Hg10 mi
6:51 PM75 °FBroken clouds.9 mph40%29.93 "Hg10 mi
5:51 PM76 °FPartly sunny.8 mph39%29.90 "Hg10 mi
4:51 PM76 °FPartly sunny.10 mph39%29.90 "Hg10 mi
3:51 PM76 °FPartly sunny.12 mph36%29.88 "Hg10 mi
2:51 PM76 °FPartly sunny.15 mph39%29.88 "Hg10 mi
1:51 PM76 °FBroken clouds.7 mph40%29.87 "Hg10 mi
12:51 PM76 °FBroken clouds.13 mph42%29.87 "Hg10 mi
11:51 AM74 °FScattered clouds.12 mph45%29.86 "Hg10 mi
10:51 AM73 °FScattered clouds.12 mph50%29.86 "Hg10 mi
9:51 AM70 °FPassing clouds.13 mph55%29.86 "Hg10 mi
8:51 AM68 °FScattered clouds.9 mph63%29.86 "Hg10 mi
7:51 AM66 °FScattered clouds.10 mph68%29.84 "Hg10 mi
6:51 AM64 °FScattered clouds.10 mph70%29.83 "Hg10 mi
5:51 AM64 °FPassing clouds.7 mph68%29.80 "Hg10 mi
4:51 AM65 °FPassing clouds.9 mph66%29.78 "Hg10 mi
3:51 AM65 °FPassing clouds.10 mph68%29.77 "Hg10 mi
2:51 AM66 °FPassing clouds.7 mph68%29.76 "Hg10 mi
1:51 AM67 °FPartly cloudy.7 mph71%29.74 "Hg10 mi
12:51 AM67 °FPassing clouds.10 mph71%29.71 "Hg10 mi
Weather by CustomWeather, © 2014

See weather overviewHow to use our weather pages